Time,TemperatureF,DewpointF,PressureIn,WindDirection,WindDirectionDegrees,WindSpeedMPH,WindSpeedGustMPH,Humidity,HourlyPrecipIn,Conditions,Clouds,dailyrainin,SoftwareType,DateUTC
2013-02-02 00:19:00,44.7,44.0,30.25,South,174,2.0,3.0,98,0.00,,,0.01,weatherlink.com 1.10,2013-02-02 08:19:00,
2013-02-02 00:34:00,45.7,45.0,30.24,South,174,1.0,3.0,97,0.00,,,0.01,weatherlink.com 1.10,2013-02-02 08:34:00,
2013-02-02 00:49:00,45.8,45.0,30.25,South,174,2.0,3.0,97,0.00,,,0.01,weatherlink.com 1.10,2013-02-02 08:49:00,
2013-02-02 01:04:00,46.2,46.0,30.25,South,174,0.0,1.0,98,0.00,,,0.01,weatherlink.com 1.10,2013-02-02 09:04:00,
2013-02-02 01:19:00,46.4,46.0,30.25,South,174,0.0,0.0,98,0.00,,,0.01,weatherlink.com 1.10,2013-02-02 09:19:00,
2013-02-02 01:34:00,46.4,46.0,30.26,South,174,0.0,0.0,98,0.00,,,0.01,weatherlink.com 1.10,2013-02-02 09:34:00,
2013-02-02 01:49:00,46.5,46.0,30.26,South,174,1.0,3.0,98,0.00,,,0.01,weatherlink.com 1.10,2013-02-02 09:49:00,
2013-02-02 02:04:00,46.8,46.0,30.27,South,174,1.0,5.0,98,0.00,,,0.01,weatherlink.com 1.10,2013-02-02 10:04:00,
2013-02-02 02:19:00,46.5,46.0,30.27,South,174,0.0,2.0,98,0.00,,,0.01,weatherlink.com 1.10,2013-02-02 10:19:00,
2013-02-02 02:34:00,46.5,46.0,30.27,South,174,1.0,3.0,98,0.00,,,0.01,weatherlink.com 1.10,2013-02-02 10:34:00,
2013-02-02 02:49:00,46.4,46.0,30.27,South,174,0.0,4.0,97,0.00,,,0.01,weatherlink.com 1.10,2013-02-02 10:49:00,
2013-02-02 03:04:00,46.1,45.0,30.26,South,174,2.0,4.0,97,0.00,,,0.01,weatherlink.com 1.10,2013-02-02 11:04:00,
2013-02-02 03:19:00,46.0,45.0,30.26,South,175,0.0,1.0,97,0.00,,,0.01,weatherlink.com 1.10,2013-02-02 11:19:00,
2013-02-02 03:34:00,46.0,45.0,30.26,South,174,0.0,3.0,97,0.00,,,0.01,weatherlink.com 1.10,2013-02-02 11:34:00,
2013-02-02 03:49:00,46.0,46.0,30.26,South,174,0.0,1.0,98,0.00,,,0.01,weatherlink.com 1.10,2013-02-02 11:49:00,
2013-02-02 04:04:00,46.2,46.0,30.25,South,174,0.0,0.0,98,0.00,,,0.01,weatherlink.com 1.10,2013-02-02 12:04:00,
2013-02-02 04:19:00,46.5,46.0,30.25,South,174,0.0,0.0,98,0.00,,,0.01,weatherlink.com 1.10,2013-02-02 12:19:00,
2013-02-02 04:34:00,46.5,46.0,30.25,South,174,0.0,0.0,98,0.00,,,0.00,weatherlink.com 1.10,2013-02-02 12:34:00,
2013-02-02 04:49:00,46.2,45.0,30.26,South,174,0.0,0.0,97,0.00,,,0.00,weatherlink.com 1.10,2013-02-02 12:49:00,
2013-02-02 05:04:00,45.7,45.0,30.26,South,174,1.0,4.0,97,0.00,,,0.00,weatherlink.com 1.10,2013-02-02 13:04:00,
2013-02-02 05:19:00,45.4,45.0,30.26,South,174,2.0,4.0,98,0.00,,,0.00,weatherlink.com 1.10,2013-02-02 13:19:00,
2013-02-02 05:34:00,45.4,45.0,30.27,South,174,2.0,4.0,98,0.00,,,0.00,weatherlink.com 1.10,2013-02-02 13:34:00,
2013-02-02 05:49:00,45.5,45.0,30.27,South,174,1.0,3.0,98,0.00,,,0.00,weatherlink.com 1.10,2013-02-02 13:49:00,
2013-02-02 06:04:00,45.9,46.0,30.27,South,174,0.0,3.0,99,0.00,,,0.00,weatherlink.com 1.10,2013-02-02 14:04:00,
2013-02-02 06:20:00,46.1,46.0,30.27,South,175,1.0,2.0,99,0.00,,,0.00,weatherlink.com 1.10,2013-02-02 14:20:00,
2013-02-02 06:35:00,46.3,46.0,30.27,South,174,0.0,1.0,99,0.00,,,0.00,weatherlink.com 1.10,2013-02-02 14:35:00,
2013-02-02 06:50:00,46.6,46.0,30.28,South,175,0.0,0.0,99,0.00,,,0.00,weatherlink.com 1.10,2013-02-02 14:50:00,
2013-02-02 07:05:00,46.9,47.0,30.28,South,174,0.0,0.0,99,0.00,,,0.00,weatherlink.com 1.10,2013-02-02 15:05:00,
2013-02-02 07:20:00,47.1,47.0,30.29,South,174,0.0,0.0,99,0.00,,,0.00,weatherlink.com 1.10,2013-02-02 15:20:00,
2013-02-02 07:35:00,47.3,47.0,30.29,South,174,0.0,2.0,99,0.00,,,0.00,weatherlink.com 1.10,2013-02-02 15:35:00,
2013-02-02 07:50:00,47.3,47.0,30.30,South,174,1.0,2.0,99,0.00,,,0.00,weatherlink.com 1.10,2013-02-02 15:50:00,
2013-02-02 08:05:00,47.3,47.0,30.30,South,174,2.0,5.0,98,0.00,,,0.00,weatherlink.com 1.10,2013-02-02 16:05:00,
2013-02-02 08:20:00,47.2,47.0,30.31,South,174,1.0,4.0,98,0.00,,,0.00,weatherlink.com 1.10,2013-02-02 16:20:00,
2013-02-02 08:35:00,47.4,47.0,30.32,South,174,0.0,2.0,99,0.00,,,0.00,weatherlink.com 1.10,2013-02-02 16:35:00,
2013-02-02 08:50:00,47.6,47.0,30.32,South,174,0.0,3.0,99,0.00,,,0.00,weatherlink.com 1.10,2013-02-02 16:50:00,
2013-02-02 09:05:00,48.0,48.0,30.32,South,175,0.0,3.0,99,0.00,,,0.00,weatherlink.com 1.10,2013-02-02 17:05:00,
2013-02-02 09:20:00,48.3,48.0,30.32,South,174,1.0,2.0,98,0.00,,,0.00,weatherlink.com 1.10,2013-02-02 17:20:00,
2013-02-02 09:35:00,48.6,48.0,30.32,South,174,0.0,2.0,98,0.00,,,0.00,weatherlink.com 1.10,2013-02-02 17:35:00,
2013-02-02 09:50:00,48.6,48.0,30.33,South,174,0.0,0.0,98,0.00,,,0.00,weatherlink.com 1.10,2013-02-02 17:50:00,
2013-02-02 10:05:00,48.9,48.0,30.33,South,174,0.0,0.0,98,0.00,,,0.00,weatherlink.com 1.10,2013-02-02 18:05:00,
2013-02-02 10:20:00,49.2,48.0,30.34,South,174,2.0,3.0,97,0.00,,,0.00,weatherlink.com 1.10,2013-02-02 18:20:00,
2013-02-02 10:35:00,50.1,49.0,30.34,South,174,2.0,3.0,97,0.00,,,0.00,weatherlink.com 1.10,2013-02-02 18:35:00,
2013-02-02 10:50:00,50.9,49.0,30.34,South,174,3.0,4.0,94,0.00,,,0.00,weatherlink.com 1.10,2013-02-02 18:50:00,
2013-02-02 11:05:00,50.9,48.0,30.33,South,174,3.0,4.0,91,0.00,,,0.00,weatherlink.com 1.10,2013-02-02 19:05:00,
2013-02-02 11:20:00,51.3,49.0,30.32,South,174,2.0,4.0,91,0.00,,,0.00,weatherlink.com 1.10,2013-02-02 19:20:00,
2013-02-02 11:35:00,51.7,49.0,30.33,South,174,3.0,6.0,90,0.00,,,0.00,weatherlink.com 1.10,2013-02-02 19:35:00,
2013-02-02 11:50:00,51.7,49.0,30.32,South,174,4.0,5.0,89,0.00,,,0.00,weatherlink.com 1.10,2013-02-02 19:50:00,
2013-02-02 12:05:00,51.9,49.0,30.31,South,174,3.0,5.0,89,0.00,,,0.00,weatherlink.com 1.10,2013-02-02 20:05:00,
2013-02-02 12:20:00,51.6,48.0,30.31,South,174,6.0,7.0,88,0.00,,,0.00,weatherlink.com 1.10,2013-02-02 20:20:00,
2013-02-02 12:35:00,51.8,48.0,30.31,South,174,4.0,7.0,88,0.00,,,0.00,weatherlink.com 1.10,2013-02-02 20:35:00,
2013-02-02 12:50:00,51.8,48.0,30.30,South,174,4.0,7.0,88,0.00,,,0.00,weatherlink.com 1.10,2013-02-02 20:50:00,
2013-02-02 13:05:00,51.8,48.0,30.29,South,174,2.0,7.0,88,0.00,,,0.00,weatherlink.com 1.10,2013-02-02 21:05:00,
2013-02-02 13:20:00,53.2,49.0,30.29,South,174,2.0,5.0,86,0.00,,,0.00,weatherlink.com 1.10,2013-02-02 21:20:00,
2013-02-02 13:35:00,54.0,49.0,30.28,South,174,4.0,9.0,83,0.00,,,0.00,weatherlink.com 1.10,2013-02-02 21:35:00,
2013-02-02 13:50:00,53.7,49.0,30.27,South,174,4.0,8.0,83,0.00,,,0.00,weatherlink.com 1.10,2013-02-02 21:50:00,
2013-02-02 14:05:00,53.8,48.0,30.27,South,174,4.0,8.0,82,0.00,,,0.00,weatherlink.com 1.10,2013-02-02 22:05:00,
2013-02-02 14:20:00,53.9,49.0,30.26,South,174,3.0,8.0,84,0.00,,,0.00,weatherlink.com 1.10,2013-02-02 22:20:00,
2013-02-02 14:35:00,53.6,49.0,30.26,South,174,3.0,8.0,83,0.00,,,0.00,weatherlink.com 1.10,2013-02-02 22:35:00,
2013-02-02 14:50:00,53.0,48.0,30.27,South,174,4.0,7.0,82,0.00,,,0.00,weatherlink.com 1.10,2013-02-02 22:50:00,
2013-02-02 15:06:00,53.7,48.0,30.27,South,174,1.0,9.0,82,0.00,,,0.00,weatherlink.com 1.10,2013-02-02 23:06:00,
2013-02-02 15:21:00,53.4,48.0,30.26,South,174,5.0,8.0,82,0.00,,,0.00,weatherlink.com 1.10,2013-02-02 23:21:00,
2013-02-02 15:36:00,52.9,48.0,30.27,South,174,2.0,7.0,83,0.00,,,0.00,weatherlink.com 1.10,2013-02-02 23:36:00,
2013-02-02 15:51:00,52.4,48.0,30.27,South,174,3.0,5.0,84,0.00,,,0.00,weatherlink.com 1.10,2013-02-02 23:51:00,
2013-02-02 16:06:00,52.7,48.0,30.27,South,174,5.0,8.0,84,0.00,,,0.00,weatherlink.com 1.10,2013-02-03 00:06:00,
2013-02-02 16:21:00,53.4,48.0,30.27,South,174,3.0,5.0,83,0.00,,,0.00,weatherlink.com 1.10,2013-02-03 00:21:00,
2013-02-02 16:36:00,53.0,48.0,30.27,South,174,3.0,7.0,84,0.00,,,0.00,weatherlink.com 1.10,2013-02-03 00:36:00,
2013-02-02 16:51:00,52.6,48.0,30.27,South,174,3.0,6.0,85,0.00,,,0.00,weatherlink.com 1.10,2013-02-03 00:51:00,
2013-02-02 17:06:00,51.8,48.0,30.27,South,174,2.0,4.0,86,0.00,,,0.00,weatherlink.com 1.10,2013-02-03 01:06:00,
2013-02-02 17:21:00,51.0,48.0,30.27,South,174,2.0,4.0,88,0.00,,,0.00,weatherlink.com 1.10,2013-02-03 01:21:00,
2013-02-02 17:36:00,50.1,47.0,30.27,South,174,0.0,2.0,89,0.00,,,0.00,weatherlink.com 1.10,2013-02-03 01:36:00,
2013-02-02 17:51:00,49.4,47.0,30.27,South,174,0.0,2.0,91,0.00,,,0.00,weatherlink.com 1.10,2013-02-03 01:51:00,
2013-02-02 18:06:00,48.7,46.0,30.27,South,174,0.0,2.0,91,0.00,,,0.00,weatherlink.com 1.10,2013-02-03 02:06:00,
2013-02-02 18:21:00,48.4,46.0,30.27,South,174,1.0,3.0,91,0.00,,,0.00,weatherlink.com 1.10,2013-02-03 02:21:00,
2013-02-02 18:36:00,46.7,45.0,30.28,South,174,1.0,2.0,93,0.00,,,0.00,weatherlink.com 1.10,2013-02-03 02:36:00,
2013-02-02 18:51:00,47.4,46.0,30.27,South,174,1.0,4.0,95,0.00,,,0.00,weatherlink.com 1.10,2013-02-03 02:51:00,
2013-02-02 19:06:00,47.1,46.0,30.28,South,174,1.0,2.0,94,0.00,,,0.00,weatherlink.com 1.10,2013-02-03 03:06:00,
2013-02-02 19:21:00,46.1,45.0,30.28,South,174,1.0,2.0,94,0.00,,,0.00,weatherlink.com 1.10,2013-02-03 03:21:00,
2013-02-02 19:36:00,44.7,43.0,30.27,South,174,2.0,2.0,94,0.00,,,0.00,weatherlink.com 1.10,2013-02-03 03:36:00,
2013-02-02 19:51:00,43.9,43.0,30.28,South,174,2.0,2.0,95,0.00,,,0.00,weatherlink.com 1.10,2013-02-03 03:51:00,
2013-02-02 20:06:00,43.2,42.0,30.28,South,174,2.0,2.0,96,0.00,,,0.00,weatherlink.com 1.10,2013-02-03 04:06:00,
2013-02-02 20:21:00,42.8,42.0,30.28,South,174,1.0,3.0,95,0.00,,,0.00,weatherlink.com 1.10,2013-02-03 04:21:00,
2013-02-02 20:36:00,42.5,42.0,30.27,South,174,3.0,4.0,97,0.00,,,0.00,weatherlink.com 1.10,2013-02-03 04:36:00,
2013-02-02 20:51:00,42.3,41.0,30.27,South,174,2.0,4.0,96,0.00,,,0.00,weatherlink.com 1.10,2013-02-03 04:51:00,
2013-02-02 21:06:00,42.0,42.0,30.27,South,174,2.0,3.0,98,0.00,,,0.00,weatherlink.com 1.10,2013-02-03 05:06:00,
2013-02-02 21:21:00,42.2,41.0,30.27,South,174,2.0,3.0,97,0.00,,,0.00,weatherlink.com 1.10,2013-02-03 05:21:00,
2013-02-02 21:36:00,41.8,41.0,30.27,South,174,1.0,3.0,97,0.00,,,0.00,weatherlink.com 1.10,2013-02-03 05:36:00,
2013-02-02 21:51:00,41.8,41.0,30.27,South,174,2.0,3.0,97,0.00,,,0.00,weatherlink.com 1.10,2013-02-03 05:51:00,
2013-02-02 22:06:00,41.3,41.0,30.27,South,174,2.0,4.0,97,0.00,,,0.00,weatherlink.com 1.10,2013-02-03 06:06:00,
2013-02-02 22:21:00,41.1,40.0,30.27,South,174,1.0,3.0,97,0.00,,,0.00,weatherlink.com 1.10,2013-02-03 06:21:00,
2013-02-02 22:36:00,41.4,41.0,30.27,South,174,2.0,4.0,97,0.00,,,0.00,weatherlink.com 1.10,2013-02-03 06:36:00,
2013-02-02 22:51:00,41.3,41.0,30.27,South,174,1.0,3.0,98,0.00,,,0.00,weatherlink.com 1.10,2013-02-03 06:51:00,
2013-02-02 23:06:00,41.4,41.0,30.27,South,174,2.0,3.0,98,0.00,,,0.00,weatherlink.com 1.10,2013-02-03 07:06:00,
2013-02-02 23:21:00,41.7,41.0,30.28,South,174,0.0,3.0,97,0.00,,,0.00,weatherlink.com 1.10,2013-02-03 07:21:00,
2013-02-02 23:36:00,43.4,43.0,30.28,South,174,2.0,2.0,99,0.00,,,0.00,weatherlink.com 1.10,2013-02-03 07:36:00,
2013-02-02 23:51:00,44.7,44.0,30.28,South,174,1.0,4.0,98,0.00,,,0.00,weatherlink.com 1.10,2013-02-03 07:51:00,